This demonstration page uses our WeatherBlox Daily Observations layout. Learn more.

Left ArrowRight Arrow

Hourly Observations for August 12, 2016

Temp ( °F °C ) Dew Point ( °F °C ) Humidity (%) Winds ( mph kmh ) Pressure ( in mb ) Visibility ( mi km ) Precip ( " mm )
12:51 am 00:51 Mostly Clear 80 26.7 61 16.1 52 52 NW 8 13 29.85 1011 10 16 0.00 0.00
1:51 am 01:51 Clear 79 26.1 62 16.7 56 56 NW 8 13 29.84 1010 10 16 0.00 0.00
2:51 am 02:51 Clear 78 25.6 62 16.7 58 58 NW 9 15 29.84 1010 10 16 0.00 0.00
3:51 am 03:51 Clear 78 25.6 62 16.7 58 58 NW 12 19 29.83 1010 10 16 0.00 0.00
4:51 am 04:51 Clear 77 25 63 17.2 62 62 NW 10 17 29.84 1010 10 16 0.00 0.00
5:51 am 05:51 Sunny 77 25 63 17.2 62 62 NW 12 19 29.86 1011 10 16 0.00 0.00
6:51 am 06:51 Sunny 80 26.7 63 17.2 56 56 NW 15 24 29.87 1012 10 16 0.00 0.00
7:51 am 07:51 Sunny 83 28.3 63 17.2 51 51 NW 20 31 29.88 1012 10 16 0.00 0.00
8:51 am 08:51 Sunny 86 30 63 17.2 46 46 WNW 20 31 29.88 1012 10 16 0.00 0.00
9:51 am 09:51 Sunny 89 31.7 64 17.8 43 43 WNW 18 30 29.88 1012 10 16 0.00 0.00
10:51 am 10:51 Sunny 93 33.9 61 16.1 34 34 W 16 26 29.85 1011 10 16 0.00 0.00
11:51 am 11:51 Sunny 95 35 59 15 30 30 W 15 24 29.82 1010 10 16 0.00 0.00
12:51 pm 12:51 Sunny 97 36.1 58 14.4 27 27 W 12 19 29.79 1009 10 16 0.00 0.00
1:44 pm 13:44 Sunny with Nearby Thunderstorms 99 37.2 55 12.8 23 23 W 13 20 29.65 1004 10 16 0.00 0.00
1:51 pm 13:51 Sunny with Nearby Thunderstorms 99 37.2 54 12.2 22 22 W 13 20 29.76 1008 10 16 0.00 0.00
2:51 pm 14:51 Sunny with Nearby Thunderstorms 101 38.3 50 10 18 18 W 10 17 29.72 1006 10 16 0.00 0.00
3:49 pm 15:49 Mostly Sunny 100 38 45 7 15 15 NNW 15 24 29.62 1003 10 16 0.00 0.00
3:51 pm 15:51 Mostly Sunny 99 37.2 45 7.2 16 16 N 14 22 29.73 1007 10 16 0.00 0.00
4:24 pm 16:24 Sunny with Nearby Thunderstorms 96 35.6 49 9.4 20 20 N 10 17 29.62 1003 10 16 0.00 0.00
4:51 pm 16:51 Partly Cloudy with Nearby Thunderstorms 95 35 48 8.9 20 20 NW 15 24 29.73 1007 10 16 0.00 0.00
5:51 pm 17:51 Mostly Sunny 79 26.1 59 15 50 50 WSW 15 24 29.82 1010 10 16 0.00 0.03
6:51 pm 18:51 Mostly Cloudy 77 25 61 16.1 58 58 NNW 13 20 29.79 1009 10 16 0.00 0.03
7:51 pm 19:51 Clear 83 28.3 53 11.7 36 36 NW 7 11 29.81 1009 10 16 0.00 0.00
8:51 pm 20:51 Clear 81 27.2 55 12.8 41 41 WNW 7 11 29.81 1010 10 16 0.00 0.00
9:51 pm 21:51 Clear 79 26.1 56 13.3 45 45 NNW 9 15 29.81 1010 10 16 0.00 0.00
10:51 pm 22:51 Clear 80 26.7 55 12.8 42 42 NW 9 15 29.79 1009 10 16 0.00 0.00
11:51 pm 23:51 Clear 80 26.7 55 12.8 42 42 NW 10 17 29.78 1008 10 16 0.00 0.00

Powered by AerisWeather